Theta_e
337 338 341 342 343 341 342 339 341 341 342 343 346 346 346 339 338 338 338 351 349 350 348 345 343 341 339 336 334 332 330 328 326 325 325 326 326 326 325 325 325 325 324
336 340 340 340 339 338 338 337 337 339 341 341 342 343 344 342 342 342 339 343 349 349 349 347 345 343 341 339 337 334 332 329 328 325 325 324 325 325 325 324 324 324 324
341 342 342 341 341 338 336 336 334 335 335 337 333 336 342 345 344 342 341 339 345 349 350 350 347 346 344 343 341 338 336 332 330 327 325 325 324 325 325 325 324 324 323
344 343 345 342 342 340 338 335 334 334 334 333 335 338 336 336 338 342 342 341 342 344 348 350 350 349 346 345 344 342 340 336 332 329 328 326 324 325 324 323 323 323 323
345 346 346 343 345 342 340 337 333 334 334 335 335 337 336 336 336 341 342 341 342 342 341 347 349 349 349 348 347 346 343 340 335 331 330 327 323 324 323 322 322 322 323
346 346 346 345 343 343 341 337 336 336 337 336 336 337 335 336 336 333 336 344 343 343 341 340 342 345 349 349 348 346 345 344 338 333 331 326 323 323 322 321 322 321 322
348 346 345 345 344 342 341 339 336 334 333 337 333 331 334 335 335 334 332 334 337 341 341 338 339 343 342 348 348 348 345 343 343 335 333 326 322 321 321 321 321 321 322
348 348 345 342 344 344 341 338 338 336 335 336 330 327 324 326 331 334 333 333 332 332 340 341 340 338 338 338 340 346 347 345 345 338 333 327 322 320 320 321 320 320 320
349 348 347 344 343 340 340 338 336 334 332 332 331 328 321 319 323 329 333 334 331 327 336 339 340 340 338 336 340 341 346 346 344 340 332 326 322 319 320 319 319 319 319
349 350 346 345 332 329 327 334 340 337 333 331 332 335 329 326 321 319 326 328 328 328 335 335 337 338 336 335 338 340 341 343 343 339 332 326 323 320 319 318 318 317 317
340 340 345 333 332 331 330 329 330 336 337 334 332 329 328 327 324 320 319 322 328 330 333 333 330 332 333 332 331 336 339 339 338 335 329 327 323 319 316 316 316 316 315
335 335 337 333 335 333 331 327 329 330 337 338 335 332 328 325 323 321 315 317 322 330 330 331 330 329 329 329 335 338 335 334 330 329 327 324 320 316 314 314 313 314 314
332 330 330 330 331 329 326 327 327 325 335 337 336 335 331 328 324 322 316 315 321 329 330 328 331 329 330 330 332 335 332 327 325 322 321 318 315 312 312 311 311 311 311
331 330 328 327 331 331 329 326 323 324 334 339 337 336 334 332 329 326 320 316 315 321 327 328 329 326 328 329 331 328 324 322 320 318 316 314 311 309 308 308 308 308 309
329 331 331 326 326 328 328 329 326 324 333 337 338 336 333 334 332 329 321 322 320 316 320 326 324 324 322 321 322 318 317 319 318 315 312 310 308 307 306 306 306 306 306
323 325 329 329 326 325 324 323 320 324 329 335 338 336 335 333 330 330 322 317 315 319 317 324 324 322 320 320 320 315 316 318 315 312 310 307 306 305 304 304 304 305 305
321 322 324 326 326 327 326 321 319 322 325 329 332 335 335 334 330 329 326 319 316 322 321 320 321 318 317 316 315 315 314 311 311 311 309 305 304 304 304 304 304 304 304
317 320 321 322 325 326 328 325 324 324 325 327 329 330 331 336 331 328 326 321 319 323 321 319 317 317 315 314 313 310 308 308 308 311 307 304 304 304 303 303 303 302 301
313 315 317 320 321 321 325 325 324 325 325 325 328 328 329 330 327 328 327 323 321 326 323 319 318 318 315 313 311 310 309 309 309 311 306 305 304 303 303 303 302 301 301
311 311 314 317 320 319 322 323 325 326 326 326 328 327 327 327 327 326 327 325 325 325 321 319 318 315 313 313 311 308 307 308 307 309 305 304 305 303 303 302 302 301 301
308 311 314 315 314 316 321 319 319 321 323 326 327 327 326 326 326 325 326 323 324 325 323 320 316 315 312 310 309 310 308 307 307 304 301 301 299 297 298 303 300 300 299
305 306 308 311 311 316 309 306 311 314 317 322 322 325 326 324 323 318 320 319 322 326 324 321 318 315 315 313 312 310 308 305 304 308 302 300 300 298 300 300 300 299 298
302 302 304 306 306 307 306 303 304 309 310 312 315 318 323 327 323 326 317 317 317 316 316 326 322 321 316 315 313 310 309 307 301 305 303 302 300 297 300 298 300 298 297
299 300 301 302 306 309 305 303 300 304 307 309 313 315 317 321 325 324 324 322 323 323 321 321 324 324 324 318 315 313 311 305 304 305 305 302 299 299 301 299 300 299 298
295 296 299 300 300 304 303 302 300 303 305 306 309 311 314 318 314 308 323 323 321 323 317 313 311 309 309 308 313 311 307 305 303 304 302 300 297 300 296 299 299 300 299
294 296 296 296 299 299 300 300 302 305 303 303 304 308 308 309 307 304 316 321 319 321 322 322 317 309 311 310 309 317 312 309 302 302 302 301 297 297 293 298 300 300 295
Wind_Speed
6 5 6 4 5 4 4 4 4 5 5 6 7 9 8 6 6 3 3 16 15 15 16 14 15 14 12 11 10 8 7 5 3 1 2 4 5 6 7 7 8 8 9
7 7 6 6 5 6 5 5 7 5 6 4 6 7 9 4 6 5 4 6 15 14 14 15 15 13 13 13 11 10 8 8 6 3 1 2 4 5 7 8 9 9 10
9 8 7 7 7 6 7 5 5 4 4 4 6 6 6 5 6 5 4 3 5 14 14 15 16 15 15 15 15 15 16 13 9 6 3 1 3 6 9 10 11 11 10
9 7 6 6 6 4 5 4 4 4 4 4 4 3 1 3 4 5 5 4 5 6 13 16 19 19 18 17 16 17 15 13 11 10 7 3 3 7 7 8 9 10 10
10 6 5 5 5 4 4 4 4 5 3 3 4 3 3 3 3 3 5 7 6 5 4 15 18 14 15 16 17 17 17 17 15 13 9 3 3 4 7 7 8 9 10
10 8 5 5 5 4 3 1 4 2 3 4 3 2 2 3 0 3 5 4 5 5 6 5 5 8 13 17 17 13 11 13 15 15 10 5 2 4 6 7 8 9 9
8 9 7 5 5 5 5 6 5 5 3 1 3 3 2 3 5 4 2 4 4 4 5 4 3 3 5 15 13 14 13 10 18 17 11 6 2 3 5 7 8 8 9
7 7 8 6 6 4 5 5 4 2 2 3 3 2 3 5 3 4 3 3 4 3 3 4 5 5 5 4 6 12 13 12 16 17 11 7 4 1 4 7 7 8 9
7 10 10 7 7 2 3 3 1 2 2 2 1 4 1 4 3 3 1 3 1 2 2 4 6 6 4 3 4 5 9 10 15 16 12 9 5 1 3 6 5 6 7
8 5 6 0 12 11 13 13 8 2 2 4 1 2 0 2 2 5 3 2 3 3 4 1 2 4 2 2 4 4 6 10 17 16 12 9 5 2 3 4 5 6 8
10 11 4 12 11 5 8 11 9 7 3 4 4 3 1 0 2 1 4 3 4 4 4 4 3 3 3 1 1 3 9 12 14 14 12 8 5 2 2 3 4 6 7
4 8 7 9 4 5 13 11 12 13 4 5 5 5 5 4 3 4 2 3 2 3 4 3 4 3 3 1 2 5 6 11 13 12 10 8 5 2 1 2 4 6 8
4 5 2 4 4 9 15 16 17 13 6 6 6 5 4 5 5 3 2 3 3 2 2 2 2 3 3 2 2 5 11 13 12 12 10 6 4 3 1 3 5 7 8
3 4 4 3 5 9 10 11 10 6 3 4 6 5 4 5 5 5 5 5 2 3 2 3 2 2 3 2 7 12 7 13 12 10 8 6 5 3 2 4 5 6 8
5 5 4 4 4 5 7 8 10 1 2 3 3 6 4 4 4 5 5 5 6 4 3 4 3 2 3 4 5 5 4 9 9 8 6 4 3 1 3 3 5 6 6
6 6 7 6 6 6 4 4 3 2 3 4 3 4 5 3 5 3 3 4 3 5 4 2 2 3 3 4 4 4 3 6 7 7 6 4 2 1 4 5 6 6 7
5 5 5 6 6 6 6 5 6 4 5 3 4 4 6 5 4 4 3 2 2 4 7 2 3 3 3 5 4 2 4 2 2 6 6 6 2 3 4 4 5 6 6
4 5 5 5 6 7 6 5 7 6 8 6 6 5 4 1 4 1 2 5 4 5 6 9 4 3 3 4 5 4 3 3 2 6 6 4 2 2 2 3 4 5 5
4 4 5 4 5 7 6 5 5 6 8 9 8 5 0 4 2 2 1 5 3 2 8 8 6 3 2 4 3 2 3 3 4 8 8 5 3 2 3 2 4 3 4
7 6 4 4 4 6 7 6 6 5 9 8 4 4 4 3 5 3 3 5 5 5 7 9 5 5 2 3 3 3 3 2 3 4 6 5 5 5 4 3 3 5 4
7 8 6 1 1 4 5 6 6 6 7 6 2 5 6 6 9 10 7 4 6 6 8 9 8 4 5 4 8 4 5 3 4 4 3 2 2 2 3 6 4 6 7
6 6 8 7 5 2 5 7 6 5 7 6 5 6 9 11 14 12 13 10 9 12 11 8 8 10 9 7 7 6 5 5 5 5 4 3 4 3 3 3 5 7 5
6 6 6 7 7 8 10 7 6 4 5 6 6 6 6 6 12 16 12 13 14 13 7 10 13 11 9 12 12 9 9 7 4 4 4 2 3 3 3 3 7 9 5
4 5 6 7 6 6 13 13 5 5 5 6 6 7 8 10 9 13 15 10 12 12 6 8 8 10 9 13 15 11 11 5 3 2 3 3 2 3 3 3 8 10 7
2 4 6 6 6 8 12 13 7 6 6 7 7 7 7 10 11 13 12 15 16 11 8 17 4 5 6 10 10 9 8 7 3 3 4 3 3 2 1 2 3 10 8
5 5 5 6 8 8 12 15 11 6 9 8 7 8 9 10 13 13 12 14 12 12 12 9 9 7 7 11 17 12 10 11 4 2 6 5 3 3 1 2 2 3 3
Wind_Direction
205 200 218 198 206 198 201 215 230 232 241 232 232 236 248 195 226 218 218 193 192 205 206 199 196 189 189 193 193 194 199 197 197 196 32 33 26 13 12 8 2 356 354
204 197 204 204 210 206 205 209 216 220 236 239 248 246 248 207 213 212 208 208 199 206 207 206 204 198 199 202 203 207 213 218 213 215 281 10 15 6 8 3 357 355 350
208 199 200 207 215 208 204 208 224 214 240 236 240 247 239 212 209 200 198 188 195 214 210 209 210 204 207 213 206 201 213 215 215 212 219 291 339 11 3 1 354 350 351
211 205 203 201 210 203 196 186 204 213 226 223 228 253 266 213 222 184 185 191 195 204 207 213 218 208 208 215 219 219 220 213 215 212 211 232 11 11 359 357 349 345 341
216 205 205 213 187 195 190 208 198 196 185 247 257 245 225 211 206 183 207 204 199 195 199 224 226 226 216 220 228 226 221 216 213 210 212 226 45 340 351 351 339 342 340
213 209 217 202 189 188 227 184 223 195 189 225 245 239 272 278 4 228 252 236 204 202 199 201 215 231 224 229 234 241 248 237 203 210 206 191 176 316 345 340 337 340 334
210 212 219 205 202 204 201 194 202 193 239 129 84 329 306 258 263 239 218 260 243 257 212 204 204 236 228 244 244 239 246 231 202 206 198 175 192 304 323 334 335 339 337
209 211 211 212 200 198 214 211 170 176 200 165 161 121 337 327 308 258 179 241 280 287 223 175 163 201 214 223 233 244 246 233 201 196 171 179 186 313 321 336 334 341 347
220 212 206 192 200 196 292 261 214 192 217 356 240 148 17 249 321 318 307 195 156 272 206 167 175 198 200 228 234 246 244 206 196 179 172 178 171 212 337 320 348 353 350
354 293 256 249 62 64 33 355 337 299 121 241 299 242 171 170 158 321 338 6 88 209 155 120 167 138 171 168 201 215 201 179 167 169 164 173 169 126 336 334 358 353 351
25 15 48 97 93 50 27 343 327 329 244 185 179 175 184 59 99 167 280 313 56 21 46 62 57 66 65 103 190 220 170 149 153 154 164 159 149 109 322 5 4 351 353
14 34 80 107 132 151 159 238 247 242 231 204 178 171 171 172 216 171 201 245 153 69 38 38 59 53 33 359 227 181 150 137 128 137 142 137 134 135 60 20 2 352 358
20 353 19 194 183 186 191 210 226 235 190 195 194 189 177 190 160 215 200 176 140 118 101 32 43 64 39 17 52 113 119 110 110 112 117 129 125 135 70 18 6 358 358
4 331 321 298 252 204 222 226 221 227 234 266 201 190 194 211 168 179 200 152 94 121 143 159 78 23 36 22 103 89 94 107 112 117 131 138 153 109 47 13 358 356 356
359 357 348 317 292 235 240 241 249 268 298 307 271 234 217 242 207 180 210 186 159 140 156 178 140 72 70 46 83 87 94 126 132 129 138 160 135 112 30 11 1 9 351
359 6 352 342 325 297 272 265 288 316 316 301 272 232 233 223 239 217 221 238 128 135 133 141 115 135 131 110 109 91 138 142 145 154 163 176 183 74 46 24 20 11 6
347 357 360 346 347 318 290 244 234 241 258 259 282 259 251 206 242 197 202 198 172 130 125 109 98 131 120 129 115 124 119 119 172 189 188 187 173 88 59 35 22 20 10
334 334 340 352 343 340 330 270 259 253 248 243 237 260 283 63 193 287 205 222 245 135 127 144 141 160 145 153 151 154 173 172 219 204 210 191 170 108 39 16 22 12 352
313 329 327 320 336 336 337 323 250 253 252 247 250 214 316 314 13 138 248 205 190 172 135 144 146 139 124 152 137 148 206 191 201 211 206 209 207 198 280 327 10 345 340
326 328 298 316 328 335 332 341 348 310 263 243 223 252 247 247 285 276 210 226 187 173 129 143 133 147 120 137 145 157 192 196 212 204 220 205 198 218 250 256 315 323 328
3 323 302 210 344 330 313 320 330 334 329 322 265 254 246 223 244 242 241 201 165 189 157 151 153 155 148 163 200 171 188 184 218 198 205 221 198 210 260 265 299 315 327
9 6 351 324 311 262 299 315 331 339 325 304 291 293 266 242 249 236 208 178 190 175 186 167 168 178 182 166 181 188 172 189 221 189 184 211 186 204 236 229 253 282 323
340 340 331 331 318 302 289 269 284 302 311 300 284 276 269 261 254 256 208 196 202 218 250 198 173 177 177 173 176 173 187 192 200 169 149 209 183 218 202 225 227 265 318
321 330 312 305 300 292 308 294 273 255 258 270 286 283 276 272 260 244 243 221 217 205 194 262 198 169 192 165 179 183 175 148 76 151 183 188 189 214 173 218 234 264 295
294 282 274 301 312 303 299 295 294 296 266 267 273 278 279 282 246 226 220 216 221 215 192 243 88 353 129 148 148 130 157 153 134 199 208 148 195 143 154 228 232 258 284
272 285 272 274 270 277 280 284 276 267 283 280 259 264 267 267 265 229 221 224 226 215 208 226 191 190 200 163 169 182 172 172 138 160 204 162 154 147 240 278 212 252 301